STARLINK-32778, 62603

Orbit data source: Space-Track

STARLINK-32778, 62603 is a payload satellite owned by SpaceX/Seattle (US) in LEO that was launched on Mon, 13 Jan 2025 UTC via an FALCON 9 launch vehicle from the Air Force Eastern Test Range (AFETR). Payload-class satellites include a variety of spacecraft equipped with specific instruments for various scientific and technological missions. These include communications satellites like Starlink; space stations such as the ISS; scientific satellites like the Hubble; Earth observation satellites from companies like Planet Labs, Umbra, and HawkEye 360; GPS; miniature CubeSats for education and research; and military/defense satellites.

Loading next visibility...
Identifier
62603, 2025-008S
Orbit
LEO
Country
Flag of USUS
Related business
Manufacturer
SpaceX/Seattle
Mission
Operational Commercial Communications
Bus & Motor
STARLINK V2M, Unknown motor
Mass
730 kg wet, ~700 kg dry
Launch date (UTC)
2025-01-13 (2 years ago)
Launch vehicle
FALCON 9
Launch site
Air Force Eastern Test Range (AFETR)
Object type
Payload
Rocket body
Debris
Shape & HBR
Box + 2 Pan, 17.7 m
Radar Cross Section
33.884 m², Large (>1 m²)

Expand to show TLE details & history
Last TLE update: 7 hours ago

TLE from 7 hours ago
0 STARLINK-32778
1 62603U 25008S   26236.50277784  .00014810  00000-0  54637-3 0  9993
2 62603  43.0015  50.6869 0002926 285.8225  74.2304 15.27594802 91224
Epoch: 2026-08-24T12:04Z
TLE epoch observation values (Epoch: 2026-08-24T12:04:00.005Z)
Latitude
-0.00001°
Longitude
-103.09669°
Altitude
482.235 km
Speed
7.626 km/s
True Right ascension
03h 22m 44s
True Declination
0° 00' 00"
Sunlit
Object was in daylight at epoch
Visualization orbit readout
Latitude
Unknown
Longitude
Unknown
Altitude
Unknown
Speed
Unknown
Apparent Right ascension
Unknown
Apparent Declination
Unknown
Sunlit
N/A
Visualization observer readout
Local Sidereal Time
10:30:19
Azimuth
Unknown
Elevation
Unknown
Doppler factor
Unknown
Orbital elements
Apogee altitude
486.958 km
Perigee altitude
482.942 km
Semi-major axis
6,863.087 km
Eccentricity
0.00029
Inclination
43.0015°
RAAN
50.6869°
Arg. of periapsis
285.8225°
True anomaly
74.26267°
Mean anomaly
74.2304°
Eccentric anomaly
74.24654°
Mean motion
3.81737 °/min
Orbital period
94.31 mins
BSTAR
0.00054637
Loading maneuver chart data...
Computing Atmospheric mass density...
Loading historical data...
Loading historical data...
Loading historical data...
Loading historical data...
Loading historical data...
Loading historical data...
Loading historical data...

Documentation

Showing up to 5 results
|